Temperature
14 14 15 15 13 12 13 14 16 18 18 19 20 19 17 17 18 17 17 17 17 17 17 17 17 17 17 17 17 17 17 17 17 17 17 17 17 17 17 17 17 17 17 16 16 16 16 16 16
14 14 15 14 12 13 13 14 16 17 19 20 19 19 17 16 17 17 17 17 17 17 17 17 17 17 17 17 17 17 17 17 17 17 17 17 17 17 17 17 16 16 16 16 16 16 16 15 15
14 14 14 11 12 13 15 16 16 17 19 19 19 19 18 17 17 17 17 17 17 17 17 17 17 17 17 17 17 17 17 17 17 17 17 17 17 16 16 16 16 16 16 16 16 16 15 15 15
14 14 14 11 13 13 15 16 16 17 19 19 18 17 17 17 17 17 17 16 17 17 16 16 16 16 17 17 17 17 16 17 17 17 16 16 16 16 16 16 16 16 16 16 16 16 15 15 15
14 13 12 12 13 14 14 16 17 17 17 18 17 16 16 16 16 16 16 16 16 16 16 16 16 16 16 16 16 16 16 16 16 16 16 16 16 16 16 16 16 16 16 15 15 15 15 15 15
13 11 11 11 13 14 14 16 16 16 16 17 17 15 15 16 16 16 16 16 16 16 16 16 16 16 16 16 16 16 16 16 16 16 16 16 16 16 16 16 16 15 15 15 15 15 15 15 15
12 10 11 12 13 14 15 16 15 14 15 16 16 15 15 16 16 16 16 16 16 15 15 15 15 15 15 15 15 15 15 15 15 15 15 15 15 15 15 15 15 15 15 15 15 15 15 15 15
12 10 12 12 13 14 14 15 15 15 15 16 16 14 15 15 15 15 15 15 15 15 15 15 15 15 15 15 15 15 15 15 15 15 15 15 15 15 15 15 15 15 15 15 15 15 14 15 14
12 10 10 12 13 13 14 14 14 15 15 15 15 16 16 15 15 15 15 15 15 14 14 14 14 14 14 14 14 14 14 14 14 14 14 14 14 14 15 14 14 14 14 14 14 14 14 14 14
11 9 11 12 13 13 13 13 13 14 13 14 14 15 15 15 14 14 14 14 14 14 14 14 14 14 14 14 14 14 14 14 14 14 14 14 14 14 14 14 14 14 14 14 14 14 14 14 14
10 9 11 12 13 13 12 12 13 13 12 13 14 14 14 14 14 14 14 14 14 14 14 14 14 13 13 13 13 13 13 13 13 13 13 13 13 13 13 14 14 14 14 13 14 13 14 13 13
10 10 11 12 12 12 12 12 12 12 13 14 14 14 13 13 13 13 13 13 13 13 13 13 13 13 13 13 13 13 13 13 13 13 13 13 13 13 13 13 13 13 13 13 13 13 13 13 13
10 10 11 11 11 11 12 11 11 12 13 13 13 13 13 13 13 13 13 13 13 13 13 13 13 13 12 12 12 12 12 12 12 12 12 12 12 12 13 13 13 13 13 13 13 13 13 13 13
10 10 10 11 11 11 11 10 10 12 13 13 13 13 13 13 13 13 13 13 13 13 13 12 12 12 12 12 12 12 12 12 12 12 12 12 12 12 12 12 12 12 12 12 12 12 12 12 12
10 9 9 10 10 10 10 9 9 13 13 12 13 13 13 13 13 13 12 12 12 12 12 12 12 12 12 11 11 11 11 11 11 11 11 11 11 11 11 11 12 12 12 12 12 12 11 11 11
9 9 8 10 10 10 10 9 11 13 12 12 12 12 12 12 12 12 12 12 12 12 12 12 12 11 11 11 11 11 11 11 11 11 11 11 11 11 11 11 11 11 11 11 11 11 11 11 11
8 8 8 9 10 10 9 9 10 12 12 11 12 12 12 12 12 12 12 12 12 12 12 12 11 11 11 11 11 10 10 10 10 10 10 10 10 10 10 10 10 10 10 10 10 10 10 10 10
8 8 8 9 9 9 8 8 9 11 11 11 11 11 11 11 12 12 12 12 12 12 11 11 11 11 11 11 10 10 10 10 10 10 10 10 10 10 10 10 10 10 10 10 10 10 10 10 10
8 8 8 8 9 9 8 8 9 10 10 9 10 11 11 11 11 11 11 11 11 11 11 11 11 10 10 10 10 10 9 9 9 9 9 9 9 9 9 9 9 9 9 9 9 9 9 9 9
8 8 7 8 9 9 8 8 8 8 9 10 10 10 11 11 11 11 11 11 11 11 11 10 10 10 10 10 9 9 9 9 9 9 9 9 9 9 9 9 9 9 9 9 9 9 9 9 8
8 7 7 8 8 8 7 7 8 8 9 10 10 11 11 11 10 10 10 10 10 10 10 10 10 10 9 9 9 9 8 8 8 8 8 9 9 9 9 8 8 9 9 9 9 8 8 8 8
7 8 8 8 7 5 7 6 7 8 8 8 9 10 10 10 10 10 10 10 10 10 10 10 9 9 9 9 9 8 8 8 8 8 8 8 8 8 8 8 8 8 8 8 8 8 8 8 8
7 8 8 7 6 5 5 5 6 7 7 8 7 9 10 10 10 10 10 10 10 10 9 9 9 9 9 8 8 8 8 8 8 8 8 8 8 8 8 8 8 8 8 8 8 8 8 8 8
7 7 6 5 4 4 5 5 6 6 7 8 7 8 9 9 10 10 10 10 9 9 9 9 9 9 8 8 8 8 7 7 7 7 7 7 7 7 7 7 7 7 7 7 8 8 7 7 7
6 5 5 5 4 4 5 5 6 7 7 7 7 8 9 9 9 9 9 9 9 9 9 8 8 8 8 8 7 7 7 7 7 7 7 7 7 7 7 7 7 7 7 7 7 7 7 7 7
5 6 5 5 5 4 5 5 6 7 7 8 8 8 8 8 9 9 9 9 9 8 8 8 8 8 7 7 7 7 7 7 7 7 6 6 6 6 7 7 7 7 7 7 7 7 7 7 7
5 5 5 4 4 4 5 5 6 7 7 6 7 7 8 8 8 8 8 8 8 8 8 8 7 7 7 7 7 7 7 6 6 6 6 6 6 6 6 6 6 6 7 7 7 7 7 7 7
6 5 4 4 4 4 5 5 5 6 6 6 5 6 7 7 8 8 8 8 8 8 7 7 7 7 6 6 6 6 6 6 6 6 6 6 6 6 6 6 6 6 6 6 6 6 6 6 6
5 5 4 3 3 4 4 5 6 6 6 5 5 6 7 7 7 7 7 7 7 7 7 7 6 6 6 6 6 6 6 6 6 5 5 5 5 5 5 5 5 5 5 5 6 6 6 6 6
5 4 3 3 3 2 2 4 6 6 5 5 5 6 7 7 7 7 7 7 7 7 6 6 6 6 6 6 5 5 5 5 5 5 5 5 5 5 5 5 5 5 5 5 5 5 5 5 5
Wind_Speed
8 7 2 4 5 3 4 6 4 2 1 1 2 7 7 5 4 6 4 3 6 7 7 9 9 9 8 8 8 8 8 8 7 7 7 7 8 8 8 8 8 8 9 9 9 10 10 10 10
4 2 4 5 4 2 6 6 6 6 3 1 2 5 6 4 3 7 3 4 8 7 7 8 10 9 7 7 7 7 7 7 6 6 6 6 7 7 7 7 7 8 8 8 9 9 9 10 10
3 1 4 4 4 6 6 5 6 4 2 1 2 4 5 5 5 6 5 7 8 7 7 8 9 9 8 7 6 5 6 6 5 6 6 6 6 6 6 6 6 7 7 7 8 9 9 9 9
3 4 4 2 6 7 5 4 1 0 2 2 3 4 3 1 4 5 6 8 8 6 6 8 9 8 7 6 6 5 4 4 4 5 5 5 6 6 6 6 6 6 7 7 8 9 9 9 9
3 4 3 2 6 5 4 4 2 1 0 2 3 4 2 3 3 7 7 8 8 6 5 7 8 7 6 6 5 4 3 3 3 4 4 5 5 5 5 5 6 6 6 7 8 9 9 9 9
4 4 3 5 6 4 3 4 1 1 1 1 3 4 2 0 4 5 7 7 7 7 5 6 7 7 6 6 5 4 3 2 3 3 3 4 4 4 5 5 5 5 5 6 8 9 9 9 8
4 4 5 5 4 4 3 1 1 2 1 2 3 4 2 2 2 5 6 7 6 6 5 4 5 5 5 5 4 4 2 1 2 2 2 3 4 4 4 4 4 4 4 5 7 8 9 9 8
4 3 3 4 4 4 2 2 1 2 2 2 3 6 4 5 2 4 5 6 5 4 4 3 3 4 3 2 3 3 3 1 1 1 2 3 3 4 4 5 5 4 4 4 5 7 9 9 9
3 2 5 5 5 3 1 1 3 1 1 1 1 4 4 3 2 4 4 3 2 2 2 3 2 2 2 2 2 1 1 2 1 1 1 1 2 3 4 4 5 5 5 4 4 6 7 8 9
4 4 7 3 3 2 2 1 3 2 2 2 2 2 1 2 3 4 3 2 2 1 1 2 3 2 2 2 2 1 1 2 1 0 1 1 1 2 3 4 5 5 5 4 5 5 6 6 6
5 7 4 3 2 1 2 4 2 2 6 6 5 4 1 1 1 3 4 4 4 4 2 2 3 3 2 1 1 1 1 1 2 1 1 1 1 2 2 2 3 4 4 4 4 4 4 4 5
4 5 5 4 2 2 4 4 4 6 10 7 7 5 4 4 5 5 6 6 5 4 4 4 4 3 2 2 1 1 0 0 1 2 2 1 1 2 2 2 3 3 3 3 3 2 3 4 5
5 5 4 5 5 5 5 7 6 10 11 8 6 6 8 7 7 6 6 6 5 5 5 4 4 4 3 2 2 2 2 2 2 2 3 3 3 3 3 3 3 4 3 4 3 3 3 3 5
4 4 6 7 7 5 6 9 6 13 8 7 7 8 8 8 7 5 4 5 5 5 5 4 4 5 4 4 3 3 3 3 3 3 4 4 4 4 3 3 4 4 5 5 4 4 4 4 4
1 4 7 6 6 4 3 8 10 12 6 8 9 8 8 8 7 7 6 6 6 5 4 4 4 4 4 4 4 3 4 4 4 4 5 5 5 5 4 4 5 5 6 5 4 4 3 4 4
1 1 5 5 5 4 4 10 9 7 6 9 9 8 8 7 7 7 6 6 6 5 4 4 4 4 5 5 5 4 4 4 4 4 5 6 6 6 5 4 5 5 5 5 4 4 4 4 4
1 3 5 5 3 3 5 10 9 5 6 9 9 8 8 7 6 6 6 6 6 6 5 4 4 5 5 5 4 5 4 5 5 5 5 6 7 7 6 5 5 6 5 5 5 4 4 4 4
6 5 5 6 4 3 8 14 15 9 8 10 9 8 8 7 8 6 5 5 5 5 4 4 4 5 4 3 3 3 4 4 4 5 5 7 7 8 6 6 6 6 5 5 5 5 4 4 4
4 5 8 8 5 5 11 17 18 12 9 10 9 8 8 8 7 5 4 4 4 4 4 4 4 4 3 3 3 3 4 4 4 5 7 7 8 8 7 6 6 6 6 7 7 5 5 4 3
6 7 8 7 4 5 10 15 14 11 9 10 11 10 9 7 5 5 4 3 4 4 5 5 6 5 5 5 5 5 5 5 5 5 6 7 8 8 8 8 7 7 6 7 7 6 5 4 4
8 9 8 7 6 5 7 10 8 6 5 6 7 8 8 9 8 6 5 4 4 5 6 6 6 6 6 6 4 3 3 3 4 5 5 7 8 8 8 9 8 8 7 8 8 8 8 6 5
8 7 7 5 3 5 1 7 8 6 6 5 6 6 7 7 7 6 5 5 6 7 6 6 6 6 6 6 5 5 6 6 7 6 6 6 7 8 8 9 9 8 7 8 9 8 6 7 6
6 3 3 3 3 5 4 5 9 5 6 8 7 7 7 8 7 7 7 7 7 6 5 5 5 5 5 5 6 7 7 7 6 5 7 7 7 7 8 8 8 9 8 9 9 8 7 7 7
3 3 2 2 2 5 7 7 8 5 7 6 5 5 5 5 5 5 5 4 4 4 3 4 4 5 5 5 6 7 8 8 7 7 7 7 6 6 8 8 8 9 8 9 9 9 9 8 8
4 4 2 3 2 7 4 6 9 8 6 6 6 6 5 4 3 3 3 3 4 4 4 4 4 5 5 5 6 7 8 8 9 8 8 7 6 6 8 8 8 8 9 10 9 9 9 9 10
6 7 6 6 5 5 3 8 8 6 4 3 3 4 3 3 4 4 4 4 4 5 4 4 5 6 5 5 6 5 6 6 6 8 7 8 7 7 8 8 8 10 10 10 9 8 9 9 10
6 5 5 4 1 4 6 6 7 3 4 3 1 1 1 3 5 5 5 4 5 4 5 5 5 5 5 5 5 5 6 6 7 7 7 7 7 7 8 8 9 9 10 10 10 8 9 9 10
5 5 4 4 4 5 6 5 5 4 3 1 0 1 3 4 4 5 4 4 5 5 5 5 5 5 6 5 5 5 6 6 6 6 7 7 7 7 7 8 8 8 9 9 9 8 8 9 9
5 4 4 4 4 4 4 6 5 7 5 3 3 3 3 4 5 4 5 5 4 4 4 4 4 4 5 5 5 5 5 6 6 6 7 7 7 7 7 7 8 8 9 9 8 8 8 9 9
6 7 7 5 6 5 4 7 5 4 4 3 3 4 4 5 4 4 5 4 3 3 3 4 4 5 5 4 4 5 5 5 5 6 6 6 6 6 6 7 7 8 8 8 8 9 8 9 9
Wind_Direction
336 339 54 60 64 65 237 244 236 256 210 239 128 114 117 106 124 154 191 175 137 137 131 119 115 113 116 117 117 116 120 124 123 124 125 131 135 137 142 145 149 151 152 152 152 148 146 143 141
344 356 60 68 108 176 253 243 226 233 217 182 96 97 91 85 105 127 156 149 132 129 122 118 115 111 110 117 120 121 122 127 129 132 134 136 140 142 147 154 158 159 160 161 159 155 155 153 151
333 68 88 97 160 195 220 225 213 233 259 166 80 68 103 132 144 153 167 141 121 119 116 117 116 112 108 106 113 126 132 132 135 139 144 147 151 153 152 156 164 167 168 168 164 161 162 161 159
50 60 67 119 223 230 221 227 223 303 5 37 98 66 63 73 156 158 138 126 117 119 111 117 119 116 110 107 105 108 123 139 140 146 152 159 157 157 162 166 165 171 173 170 168 167 167 166 166
65 86 110 226 239 248 246 260 255 249 324 12 87 103 74 352 100 117 124 126 127 130 117 117 117 113 112 111 103 102 108 122 145 149 153 157 159 161 163 166 169 170 176 177 174 173 172 173 173
65 88 141 223 239 251 267 284 272 235 259 23 91 114 162 226 106 124 127 129 132 135 120 112 112 106 100 101 97 89 101 120 131 153 162 164 167 170 169 171 171 173 177 183 184 184 183 181 182
115 131 191 218 235 239 253 300 144 177 222 256 146 132 179 245 170 137 126 125 126 127 125 110 109 109 102 96 89 82 83 122 147 157 174 165 167 174 180 181 183 182 185 189 195 195 191 188 190
132 132 214 229 221 225 282 350 121 158 221 264 136 154 193 232 210 109 101 103 111 119 129 130 112 109 103 108 100 79 66 63 162 180 175 177 182 185 186 191 193 191 189 195 204 203 200 196 198
100 113 218 224 207 216 325 2 322 302 199 307 169 182 203 198 115 87 81 70 98 118 145 151 144 122 119 126 121 96 62 29 14 203 193 191 203 199 195 200 199 197 200 203 212 214 209 203 204
117 191 224 228 204 215 302 288 284 324 304 278 306 306 12 123 120 134 153 165 160 185 196 169 165 161 136 126 108 85 41 3 350 292 218 236 217 211 204 200 201 206 203 208 219 229 215 206 205
172 205 227 247 247 231 278 286 271 233 253 227 217 229 223 193 176 183 191 194 194 195 197 189 175 170 160 147 129 83 32 357 334 290 232 218 214 224 211 191 201 206 203 202 219 217 212 206 201
204 238 231 242 257 248 248 269 275 235 239 228 212 209 211 225 227 219 210 203 201 200 205 206 185 176 177 165 185 180 197 272 289 290 255 209 199 211 208 197 202 194 197 195 197 197 206 213 214
229 260 264 257 264 255 253 250 256 254 250 251 239 224 221 225 234 231 216 202 196 202 211 207 190 185 185 183 208 206 211 225 241 262 264 230 206 217 212 210 203 201 198 194 200 212 222 231 227
227 263 282 267 259 255 250 265 249 257 246 239 231 228 229 225 225 228 225 210 202 205 210 211 199 194 186 192 203 215 220 229 234 239 248 241 223 212 215 219 216 208 205 204 203 213 225 235 234
325 310 302 260 228 232 232 273 238 249 237 237 237 234 236 234 225 220 218 205 200 201 207 214 211 199 195 205 214 220 225 223 225 235 239 241 234 219 211 219 223 218 213 206 206 214 218 239 241
9 312 285 269 201 195 183 264 257 244 215 233 238 238 236 236 230 228 223 211 197 192 202 219 220 208 213 216 223 225 227 226 230 236 235 236 235 228 214 222 227 220 211 201 206 214 222 236 240
228 242 250 281 220 190 208 256 268 251 226 241 241 237 234 240 247 238 220 212 200 196 201 215 219 217 222 224 224 228 225 225 233 238 237 238 237 233 223 223 225 217 211 209 213 216 217 231 244
213 229 250 253 247 234 252 263 274 270 245 246 242 236 233 230 235 230 222 218 204 201 201 210 220 223 224 231 235 238 237 232 233 234 238 241 240 234 227 225 223 216 217 215 211 214 224 226 232
201 227 255 260 259 256 257 266 274 272 252 242 238 230 225 228 232 224 219 219 202 202 203 213 217 232 223 227 233 236 240 240 237 236 236 239 238 234 228 233 223 219 219 218 213 213 219 231 220
232 250 262 279 276 265 274 276 273 265 247 233 225 223 218 220 230 231 227 219 203 208 214 220 226 233 231 226 225 222 229 237 238 240 240 239 237 233 232 225 220 218 222 222 215 207 214 228 211
231 229 240 259 310 309 305 296 278 274 253 239 216 214 207 202 209 219 221 223 210 219 226 230 233 236 239 235 233 243 250 254 251 245 242 240 237 235 231 226 224 220 219 223 220 211 212 223 223
243 229 227 244 287 285 323 293 283 273 281 254 231 217 210 206 208 216 220 224 219 228 230 232 236 240 242 235 229 232 240 249 248 244 243 251 241 238 229 224 225 223 223 225 224 222 221 212 226
217 207 218 233 216 279 247 240 277 278 263 257 239 224 214 208 205 213 221 223 225 224 228 235 237 244 247 240 234 235 245 247 250 249 247 250 246 238 230 225 224 224 225 225 223 222 223 217 223
161 56 35 47 101 263 224 206 273 243 232 248 240 227 211 208 211 220 233 229 233 229 235 243 244 254 249 246 244 237 244 248 251 255 251 252 248 242 235 230 227 228 228 227 225 222 223 224 225
131 110 21 329 282 247 214 211 251 249 243 233 227 220 217 213 212 235 242 237 242 242 248 254 253 263 260 257 258 249 243 241 243 249 247 250 251 246 238 237 233 232 230 230 227 221 224 222 224
183 162 177 214 232 272 247 231 252 273 281 251 215 198 207 231 245 248 250 239 239 244 249 255 262 269 273 268 268 259 249 244 246 248 249 248 248 248 245 239 241 238 231 232 227 224 227 227 227
161 198 180 154 217 264 260 273 300 327 12 25 56 86 259 265 263 259 262 252 245 247 252 247 256 269 275 274 273 272 263 259 257 256 253 252 252 252 244 240 245 242 235 230 226 229 231 229 231
167 155 129 163 201 248 270 259 244 255 268 311 345 278 278 283 287 278 271 263 249 244 252 249 246 254 261 265 268 278 277 270 265 261 259 256 253 250 248 246 249 246 240 231 226 230 233 229 233
165 168 171 175 191 198 254 262 230 217 221 225 248 256 272 280 289 284 284 275 260 268 269 265 264 263 268 272 277 284 284 281 275 265 259 257 259 254 252 249 250 248 243 232 227 230 231 232 237
194 188 168 184 226 210 222 267 276 230 232 236 268 285 297 287 290 286 286 293 289 279 280 280 277 271 267 267 279 283 284 286 282 277 272 262 260 258 254 253 255 254 248 235 229 231 233 233 237
Height
1492 1494 1496 1498 1502 1510 1508 1499 1490 1485 1484 1482 1481 1481 1483 1487 1490 1498 1496 1494 1495 1496 1497 1498 1499 1499 1500 1501 1502 1503 1504 1505 1506 1506 1507 1508 1508 1509 1510 1510 1511 1512 1512 1513 1514 1514 1515 1515 1516
1492 1494 1497 1498 1506 1513 1506 1493 1488 1483 1481 1482 1482 1482 1483 1487 1489 1491 1492 1494 1495 1496 1497 1497 1498 1499 1500 1501 1502 1502 1503 1504 1505 1505 1506 1507 1508 1508 1509 1510 1510 1511 1512 1512 1513 1514 1514 1515 1515
1492 1494 1496 1499 1505 1506 1497 1487 1484 1481 1481 1481 1481 1482 1484 1487 1489 1490 1492 1493 1495 1496 1496 1497 1498 1498 1499 1500 1501 1502 1502 1503 1503 1504 1505 1506 1506 1507 1508 1508 1509 1510 1510 1511 1512 1513 1513 1514 1514
1492 1495 1497 1501 1500 1494 1488 1483 1482 1481 1480 1480 1481 1484 1486 1489 1489 1490 1492 1493 1494 1495 1495 1496 1497 1498 1498 1499 1500 1500 1501 1501 1502 1503 1503 1504 1505 1506 1506 1507 1508 1508 1509 1510 1510 1511 1512 1512 1513
1491 1493 1499 1501 1496 1489 1484 1482 1482 1482 1481 1481 1481 1484 1486 1489 1489 1490 1491 1492 1493 1494 1494 1495 1496 1497 1497 1498 1498 1499 1499 1500 1500 1501 1502 1502 1503 1504 1505 1505 1506 1507 1507 1508 1508 1509 1510 1511 1511
1492 1493 1502 1502 1493 1486 1483 1481 1481 1481 1481 1481 1482 1484 1486 1488 1488 1489 1490 1491 1492 1492 1493 1494 1495 1495 1496 1496 1497 1497 1498 1498 1499 1499 1500 1500 1501 1502 1503 1503 1504 1504 1505 1506 1507 1507 1508 1509 1510
1492 1495 1498 1494 1491 1486 1483 1481 1481 1481 1481 1481 1482 1484 1485 1487 1488 1488 1489 1490 1491 1491 1492 1492 1493 1493 1494 1495 1495 1495 1496 1496 1497 1497 1498 1498 1499 1500 1500 1501 1502 1502 1503 1504 1504 1505 1506 1506 1507
1490 1494 1493 1492 1488 1485 1482 1481 1480 1480 1480 1481 1481 1482 1483 1485 1486 1487 1487 1488 1489 1489 1490 1491 1491 1491 1492 1492 1493 1493 1494 1494 1495 1495 1496 1496 1496 1497 1498 1498 1499 1500 1500 1501 1502 1502 1503 1504 1505
1489 1496 1494 1488 1485 1483 1481 1481 1480 1480 1480 1479 1479 1480 1481 1483 1484 1485 1485 1486 1487 1487 1488 1488 1489 1489 1489 1490 1490 1491 1491 1492 1492 1493 1493 1493 1494 1494 1495 1496 1496 1497 1498 1498 1499 1500 1500 1501 1502
1488 1494 1488 1483 1482 1481 1481 1480 1480 1479 1478 1478 1477 1478 1479 1480 1481 1482 1482 1483 1483 1484 1485 1486 1486 1487 1487 1487 1488 1488 1488 1489 1489 1490 1490 1490 1491 1491 1492 1493 1493 1494 1495 1495 1496 1497 1497 1498 1499
1485 1487 1483 1481 1480 1480 1480 1479 1479 1478 1476 1475 1475 1475 1476 1478 1478 1479 1479 1480 1481 1481 1482 1483 1483 1483 1484 1484 1485 1485 1485 1486 1486 1487 1487 1487 1488 1488 1489 1489 1490 1491 1491 1492 1493 1493 1494 1495 1495
1483 1481 1480 1479 1479 1479 1478 1477 1477 1475 1472 1472 1473 1473 1474 1475 1475 1476 1477 1477 1478 1479 1479 1480 1480 1480 1481 1481 1481 1482 1482 1483 1483 1483 1484 1484 1484 1484 1485 1486 1486 1487 1488 1488 1489 1490 1491 1492 1492
1481 1479 1478 1478 1477 1477 1476 1475 1474 1469 1469 1469 1470 1471 1471 1472 1472 1473 1473 1474 1475 1475 1476 1476 1477 1477 1477 1478 1478 1478 1479 1479 1479 1480 1480 1480 1480 1480 1481 1482 1482 1483 1484 1485 1486 1486 1487 1488 1488
1479 1478 1477 1476 1475 1474 1474 1471 1472 1463 1465 1466 1466 1466 1467 1468 1469 1469 1470 1471 1471 1472 1473 1473 1473 1474 1474 1474 1474 1475 1475 1475 1475 1476 1476 1476 1476 1476 1477 1478 1478 1479 1480 1481 1482 1482 1483 1484 1484
1478 1478 1476 1472 1472 1471 1472 1470 1465 1459 1462 1462 1462 1463 1463 1464 1465 1465 1466 1467 1467 1468 1469 1469 1470 1470 1470 1471 1471 1471 1471 1471 1471 1471 1472 1472 1472 1473 1473 1473 1474 1475 1476 1477 1477 1478 1479 1480 1480
1478 1480 1480 1471 1469 1469 1474 1469 1458 1457 1458 1458 1458 1459 1459 1459 1460 1461 1462 1463 1464 1464 1465 1466 1466 1467 1467 1467 1467 1467 1467 1467 1467 1467 1467 1468 1468 1468 1468 1468 1469 1470 1471 1472 1472 1473 1474 1475 1475
1481 1482 1478 1472 1467 1467 1470 1465 1456 1455 1455 1454 1454 1454 1455 1455 1456 1457 1458 1459 1460 1460 1461 1462 1462 1463 1463 1463 1463 1462 1462 1462 1462 1462 1462 1463 1463 1464 1464 1464 1465 1466 1466 1467 1468 1469 1469 1470 1471
1479 1479 1475 1472 1467 1467 1467 1461 1452 1452 1452 1450 1449 1450 1450 1450 1452 1453 1453 1454 1456 1456 1457 1458 1458 1459 1459 1459 1458 1458 1457 1457 1457 1457 1457 1458 1458 1458 1459 1459 1460 1460 1461 1462 1463 1464 1465 1466 1467
1472 1473 1472 1469 1465 1466 1463 1457 1449 1447 1447 1445 1444 1445 1445 1446 1448 1449 1450 1450 1451 1452 1453 1453 1454 1454 1454 1454 1453 1453 1452 1451 1451 1451 1451 1452 1452 1453 1453 1453 1454 1455 1455 1456 1458 1459 1460 1461 1462
1471 1472 1471 1467 1464 1463 1460 1453 1445 1441 1439 1438 1438 1439 1440 1442 1443 1444 1445 1446 1447 1448 1449 1449 1449 1449 1449 1449 1448 1448 1447 1446 1445 1445 1446 1446 1446 1447 1447 1448 1448 1449 1450 1451 1452 1453 1454 1456 1458
1468 1469 1468 1467 1464 1462 1461 1453 1443 1437 1434 1433 1433 1434 1435 1437 1439 1440 1442 1442 1443 1444 1444 1444 1444 1444 1444 1444 1444 1443 1442 1440 1440 1439 1439 1440 1440 1440 1441 1442 1443 1443 1444 1445 1446 1448 1449 1450 1452
1466 1461 1463 1464 1469 1470 1466 1465 1445 1437 1433 1431 1430 1430 1431 1433 1435 1436 1437 1438 1439 1439 1440 1439 1439 1439 1438 1438 1438 1437 1435 1434 1433 1433 1433 1434 1434 1434 1434 1436 1437 1437 1438 1439 1440 1442 1443 1444 1445
1460 1459 1461 1463 1467 1471 1467 1468 1447 1438 1434 1429 1428 1427 1428 1430 1431 1432 1433 1434 1434 1435 1435 1435 1434 1434 1433 1433 1432 1431 1430 1429 1428 1428 1427 1427 1428 1428 1429 1429 1430 1430 1431 1433 1434 1435 1437 1438 1439
1457 1461 1464 1468 1472 1473 1463 1466 1448 1439 1430 1427 1425 1426 1426 1427 1428 1429 1430 1430 1430 1431 1431 1431 1430 1429 1428 1427 1427 1425 1424 1423 1422 1421 1421 1421 1421 1422 1422 1423 1423 1424 1425 1426 1427 1428 1430 1431 1432
1457 1465 1473 1474 1479 1470 1456 1458 1443 1428 1425 1423 1423 1423 1424 1425 1425 1426 1426 1426 1427 1427 1427 1426 1426 1424 1423 1422 1421 1420 1418 1417 1416 1416 1415 1415 1415 1415 1416 1416 1417 1417 1417 1419 1420 1421 1422 1424 1425
1456 1459 1468 1470 1470 1464 1453 1451 1435 1424 1421 1420 1420 1421 1422 1422 1423 1423 1423 1423 1424 1423 1423 1423 1422 1420 1419 1417 1416 1414 1413 1412 1411 1410 1410 1409 1409 1409 1409 1409 1410 1410 1411 1412 1413 1414 1415 1417 1417
1455 1457 1456 1465 1468 1467 1454 1444 1432 1422 1421 1420 1420 1421 1421 1421 1421 1421 1421 1421 1421 1420 1420 1419 1418 1416 1415 1413 1411 1410 1409 1407 1405 1404 1404 1403 1403 1403 1403 1403 1402 1402 1403 1404 1405 1406 1407 1409 1410
1449 1452 1460 1464 1465 1461 1452 1445 1437 1426 1424 1423 1422 1421 1420 1419 1418 1418 1418 1417 1417 1417 1416 1415 1414 1412 1411 1410 1407 1406 1404 1402 1400 1399 1397 1397 1397 1397 1396 1396 1396 1395 1396 1397 1398 1398 1399 1401 1402
1450 1453 1455 1460 1461 1461 1455 1441 1425 1424 1421 1422 1421 1419 1418 1417 1415 1415 1415 1414 1414 1413 1412 1411 1410 1408 1407 1405 1403 1401 1399 1397 1395 1393 1391 1391 1390 1390 1389 1389 1389 1389 1389 1390 1390 1391 1392 1393 1394
1444 1445 1451 1457 1459 1460 1458 1442 1420 1420 1419 1419 1419 1418 1416 1415 1414 1413 1412 1411 1410 1410 1409 1407 1406 1404 1403 1401 1399 1396 1394 1391 1389 1387 1386 1385 1384 1383 1383 1382 1383 1383 1382 1383 1383 1384 1385 1386 1387